Regional Weather Roundup
Issued by NWS

Home | Current Version | Previous Version | Text Only | Print | Product List | Glossary On
Versions: 1 2 3 4 5 6 7 8 9 10 11 12 13 14 15 16 17 18 19 20 21 22 23 24 25 26 27 28 29 30 31 32 33 34 35 36 37 38 39 40 41 42 43 44 45 46 47 48 49 50
000
ASUS43 KMKX 111221
RWRWI

WISCONSIN REGIONAL WEATHER ROUNDUP
NATIONAL WEATHER SERVICE MILWAUKEE/SULLIVAN WI
600 AM CST THU FEB 11 2016

NOTE: "FAIR" INDICATES FEW OR NO CLOUDS BELOW 12,000 FEET WITH NO
SIGNIFICANT WEATHER AND/OR OBSTRUCTIONS TO VISIBILITY.

WIZ001-002-006>008-014>016-023>028-111300-
NORTHWEST WISCONSIN

CITY           SKY/WX    TMP DP  RH WIND       PRES   REMARKS
SUPERIOR ARPT  CLOUDY    -9 -14  78 W7        30.32S WCI -24
6HR MIN TEMP: -10; 6HR MAX TEMP:  -1;

ASHLAND        CLOUDY    -3  -6  87 SW7       30.27S WCI -16
6HR MIN TEMP:  -7; 6HR MAX TEMP:   1;

HAYWARD        CLOUDY   -19 -25  73 CALM      30.26R
6HR MIN TEMP: -20; 6HR MAX TEMP: -11;

SIREN          CLOUDY   -14 -19  76 CALM      30.30S
6HR MIN TEMP: -16; 6HR MAX TEMP:  -6;

CUMBERLAND     CLOUDY    -9 -17  70 CALM      30.25F
RICE LAKE      CLOUDY   -12 -17  77 CALM      30.28F
6HR MIN TEMP: -12; 6HR MAX TEMP:  -1;

CHETEK         CLOUDY   -14 -18  82 MISG      30.28F
6HR MIN TEMP: -14; 6HR MAX TEMP:  -3;

LADYSMITH      CLOUDY   -18 -24  74 CALM      30.26S
6HR MIN TEMP: -17; 6HR MAX TEMP:  -8;

EAU CLAIRE     PTCLDY    -7 -12  79 CALM      30.29R
6HR MIN TEMP:  -9; 6HR MAX TEMP:   4;

MENOMONIE      PTCLDY    -5 -12  73 CALM      30.31R
6HR MIN TEMP:  -5; 6HR MAX TEMP:   4;

NEW RICHMOND   PTCLDY    -9 -14  78 CALM      30.29F
6HR MIN TEMP:  -9; 6HR MAX TEMP:   2;

OSCEOLA        PTCLDY    -6 -10  82 CALM      30.33S
6HR MIN TEMP:  -6; 6HR MAX TEMP:   3;

$$

WIZ003>005-009-010-017-018-111300-
NORTH CENTRAL WISCONSIN

CITY           SKY/WX    TMP DP  RH WIND       PRES   REMARKS
MANITOWISH WTR FLURRIES  -1  -4  87 CALM      30.16R
6HR MIN TEMP:  -3; 6HR MAX TEMP:   4;

ARBOR VITAE    CLOUDY     2  -2  82 CALM      30.15S
6HR MIN TEMP:   0; 6HR MAX TEMP:   5;

WOODRUFF       CLOUDY     2  -2  82 CALM      30.15S
6HR MIN TEMP:   0; 6HR MAX TEMP:   5;

RHINELANDER    CLOUDY    -2  -6  83 W6        30.15R WCI -14
6HR MIN TEMP:  -3; 6HR MAX TEMP:   2;

EAGLE RIVER    FLURRIES  -1  -5  80 W3        30.13S
LAND O LAKES   CLOUDY     7   1  79 W5        30.13S WCI  -2
6HR MIN TEMP:   6; 6HR MAX TEMP:   7;

PHILLIPS       CLOUDY   -12 -15  83 CALM      30.20S
6HR MIN TEMP: -16; 6HR MAX TEMP:  -6;

TOMAHAWK       PTCLDY    -5  -9  84 W3        30.19S
6HR MIN TEMP:  -5; 6HR MAX TEMP:   1;

MEDFORD        CLOUDY   -10 -13  84 NW3       30.20S
6HR MIN TEMP: -13; 6HR MAX TEMP:  -4;

MERRILL        CLEAR     -8 -12  83 CALM      30.21S
6HR MIN TEMP:  -8; 6HR MAX TEMP:   4;

$$

WIZ029-030-035-036-043>047-111300-
CENTRAL WISCONSIN

CITY           SKY/WX    TMP DP  RH WIND       PRES   REMARKS
WAUSAU         CLEAR     -1  -6  79 NW8       30.21R WCI -15
6HR MIN TEMP:  -2; 6HR MAX TEMP:   3;

MOSINEE        CLEAR     -4  -8  84 CALM      30.22R
MARSHFIELD     CLOUDY    -6 -12  75 W5        30.22R WCI -17
6HR MIN TEMP:  -7; 6HR MAX TEMP:   0;

STEVENS POINT  CLOUDY    -4  -8  82 CALM      30.24S
6HR MIN TEMP:  -4; 6HR MAX TEMP:   0;

WAUPACA        CLEAR      1  -5  75 W5        30.26R WCI  -9
6HR MIN TEMP:   1; 6HR MAX TEMP:   6;

WAUTOMA        CLOUDY     0  -6  75 N6        30.27R WCI -11
6HR MIN TEMP:  -7; 6HR MAX TEMP:   0;

WISC RAPIDS    CLOUDY    -7 -13  75 CALM      30.27R
6HR MIN TEMP:  -8; 6HR MAX TEMP:  -1;

CAMP DOUGLAS   CLEAR     -8  -9  92 W5        30.27R WCI -19
$$

WIZ011>013-019>022-031-037>040-048>050-111300-
NORTHEAST WISCONSIN

CITY           SKY/WX    TMP DP  RH WIND       PRES   REMARKS
ANTIGO         MOCLDY    -2  -6  84 NW9       30.16S WCI -18
6HR MIN TEMP:  -5; 6HR MAX TEMP:   3;

SHAWANO        MOCLDY     1  -4  77 W7        30.25R WCI -11
6HR MIN TEMP:   1; 6HR MAX TEMP:   6;

OCONTO         CLEAR      0  -5  80 W5        30.23R WCI -10
6HR MIN TEMP:  -6; 6HR MAX TEMP:   2;

STURGEON BAY   CLEAR      3  -6  66 NW9       30.22R WCI -11
6HR MIN TEMP:   1; 6HR MAX TEMP:   5;

GREEN BAY      CLEAR     -4  -8  83 W9        30.24R WCI -20
6HR MIN TEMP:  -4; 6HR MAX TEMP:   1;

MANITOWOC      CLEAR      2  -4  76 W9        30.24R WCI -13
6HR MIN TEMP:   2; 6HR MAX TEMP:   5;

APPLETON       CLEAR     -2  -9  71 W12       30.21R WCI -20
CLINTONVILLE   CLEAR      0  -6  78 NW7       30.24R WCI -13
OSHKOSH        CLEAR     -1  -8  72 W8        30.24R WCI -15
6HR MIN TEMP:  -1; 6HR MAX TEMP:   3;

$$

WIZ032>034-041-042-053>061-111300-
SOUTHWEST WISCONSIN

CITY           SKY/WX    TMP DP  RH WIND       PRES   REMARKS
LA CROSSE      PTCLDY    -2  -7  79 CALM      30.32R
6HR MIN TEMP:  -5; 6HR MAX TEMP:   7;

SPARTA         PTCLDY   -16 -21  80 CALM      30.31R
6HR MIN TEMP: -17; 6HR MAX TEMP:  -2;

VIROQUA        PTCLDY     0  -4  83 CALM      30.25R
6HR MIN TEMP:  -2; 6HR MAX TEMP:   2;

BOSCOBEL       PTCLDY    -4  -8  83 CALM      30.33R
6HR MIN TEMP:  -4; 6HR MAX TEMP:   9;

PRAIRIE DU CHI PTCLDY     0  -6  76 CALM      30.33R
6HR MIN TEMP:   0; 6HR MAX TEMP:  11;

PLATTEVILLE    CLEAR      3  -3  75 NW6       30.28R WCI  -8
6HR MIN TEMP:   1; 6HR MAX TEMP:   9;

$$

WIZ056-057-062-063-064-067-068-111300-
SOUTH CENTRAL WISCONSIN

CITY           SKY/WX    TMP DP  RH WIND       PRES   REMARKS
REEDSBURG      PTCLDY    -4  -9  81 CALM      30.27S
6HR MIN TEMP:  -4; 6HR MAX TEMP:   5;

BARABOO/DELLS  PTCLDY    -5  -9  83 CALM      30.26S
6HR MIN TEMP:  -6; 6HR MAX TEMP:   5;

LONE ROCK      PTCLDY    -4  -9  79 W5        30.31R WCI -15
6HR MIN TEMP:  -6; 6HR MAX TEMP:   3;

MINERAL POINT  CLOUDY     1  -4  78 CALM      30.25R
MADISON        CLEAR      1  -5  75 NW3       30.26R
6HR MIN TEMP:   1; 6HR MAX TEMP:   7;

MIDDLETON      CLEAR      0  -5  80 CALM      30.27R
6HR MIN TEMP:   1; 6HR MAX TEMP:   9;

WATERTOWN      PTCLDY     2  -4  77 NW6       30.24S WCI  -9
6HR MIN TEMP:   2; 6HR MAX TEMP:   7;

MONROE         CLEAR      5   0  78 NW6       30.25R WCI  -6
JANESVILLE     CLEAR      7  -2  66 N7        30.26R WCI  -5
$$

WIZ051-052-058>065-066-070>072-111300-
SOUTHEAST WISCONSIN

CITY           SKY/WX    TMP DP  RH WIND       PRES   REMARKS
MILWAUKEE      CLEAR      5  -5  63 NW9       30.25R WCI  -9
6HR MIN TEMP:   5; 6HR MAX TEMP:   9;

WAUKESHA       CLEAR      0  -6  78 CALM      30.24R
MILWAUKEE/TIMM CLEAR      5  -6  61 NW8       30.26R WCI  -8
RACINE         CLEAR      4  -5  66 NW9       30.26R WCI -10
6HR MIN TEMP:   4; 6HR MAX TEMP:   9;

BURLINGTON     CLEAR      0  -6  75 NW5       30.26R WCI -10
6HR MIN TEMP:   0; 6HR MAX TEMP:   6;

KENOSHA        CLEAR      5  -4  66 NW6       30.24R WCI  -6
6HR MIN TEMP:   5; 6HR MAX TEMP:   8;

FOND DU LAC    CLEAR      2  -6  69 W10       30.24R WCI -14
6HR MIN TEMP:   1; 6HR MAX TEMP:   4;

SHEBOYGAN      CLEAR      2  -6  69 W10       30.23R WCI -14
6HR MIN TEMP:   2; 6HR MAX TEMP:   5;

WEST BEND      CLEAR      1  -6  71 CALM      30.23R
JUNEAU         PTCLDY     0  -6  78 NW5       30.26R WCI -10
6HR MIN TEMP:   0; 6HR MAX TEMP:   4;

$$

LSZ147-162-111300-
LAKE SUPERIOR

STATION/POSITION TIME  TEMP    WIND        PRES    WAVE
                       AIR SEA DIR/SP/G            HT/PER
                 (UTC) (F)     (DEG/KT/KT) (MB)    (FT/S)
DEVILS ISLAND    1200    8     280/  9/ 11 1026.4F
PORT WING        1140    0     190/  6/  8 1025.4S
SAXON HARBOR     1100    6                 1024.4
$$

LMZ867-665-643>646-111300-
LAKE MICHIGAN

STATION/POSITION TIME  TEMP    WIND        PRES    WAVE
                       AIR SEA DIR/SP/G            HT/PER
                 (UTC) (F)     (DEG/KT/KT) (MB)    (FT/S)
CHAMBERS ISLAND  1100    8     300/  7/ 14 C1F1C2F2C3F3C4F4C5F5C6F6C7F7C8M1C9M2Ca!


USA.gov is the U.S. government's official web portal to all federal, state and local government web resources and services.